Погода в Венгене

Швейцария     46°36′17″N   7°55′16″E
темп.,
°C
ветер,
м/с
пор.,
м/с
влажн.,
%
обл.,
%
осадки,
мм/ч
давл.,
гПа
погр.,
м
16 мая, вс
вс1623:00−3з229997 2.4 101052
02:00−3зюз229893 4.3 101182
05:00−4юз3396100 0.3 101159
08:00−1юз2286100 0.3 100899
11:00−1ююв1199100 0.4 1008208
14:000юз22100100 1.2 1007251
17:000ююз34100100 2.5 1006195
20:00−1з22100100 9.4 1007168
17 мая, пн
пн1723:00−2зсз3399100 4.7 1009162
02:00−4сз3398100 5.3 1011235
05:00−5сз339897 3.1 1011301
08:00−5з339038 3.2 1014327
11:00−3з348981 0.1 1013474
14:00−2зсз339745 0.4 1014477
17:00−2зсз339667 1.1 1015392
20:00−4зсз229675 1.3 1018109
18 мая, вт
вт1823:00−7з229185 0.1 102114
02:00−9зюз129647 0.1 102312
05:00−6зюз229890 0.1 1020113
08:00−4з229072 0.1 1018364
11:00−3зсз2294100 0.2 1018528
14:00−2зсз339898 1.8 1017416
17:00−4сз449777 2.7 1020393
20:00−5сз339588 3.5 1022198
19 мая, ср
ср1923:00−6зсз349679 0.8 1025105
02:00−10сз229553 0.8 102813
05:00−10сз229460 0.0 102714
08:00−5сз22865 0.0 1024140
11:00−4сз229396 0.3 1022546
14:00−3зсз2296100 2.4 1021428
17:00−3сз339875 4.6 1021320
20:00−3зсз2398100 7.0 1022236
20 мая, чт
чт2023:00−4зсз3399100 3.9 1023199
02:00−5зсз2297100 6.3 102445
05:00−6сз3398100 6.9 1024154
08:00−5ссз339680 10.3 1025269
11:00−4ссз329480 0.3 1026523
14:00−3сз118875 0.4 1025523
17:00−2зсз119069 0.1 1024467
20:00−4з1193100 0.1 102515